Погода в Бибикове

Россия / Тамбовская область     53°08′04″N   40°56′08″E
темп.,
°C
ветер,
м/с
пор.,
м/с
влажн.,
%
обл.,
%
осадки,
мм/ч
давл.,
гПа
погр.,
м
17 мая, вт
вт1700:00+5з410902 0.0 1007229
03:00+4з4109224 0.0 1006239
06:00+5з61190100 0.0 1005459
09:00+8з7872100 0.0 10041035
12:00+6з61094100 2.4 10041015
15:00+6зсз6993100 3.9 1003926
18:00+6з71195100 2.1 1004591
21:00+6з61095100 2.6 1004486
18 мая, ср
ср1800:00+6з4796100 0.0 1004451
03:00+6з3698100 0.3 1004249
06:00+7ссз239787 0.7 1006223
09:00+9ссз458862 0.8 1007564
12:00+10ссз678799 0.6 1010705
15:00+11с577361 0.9 10111041
18:00+12ссз46690 0.2 10121084
21:00+7зсз478088 0.3 1013118
19 мая, чт
чт1900:00+7сз41186100 0.0 1015297
03:00+4сз489633 0.0 1016209
06:00+5зсз488765 0.0 1017256
09:00+10з686366 0.0 1016913
12:00+14з8115684 0.2 10152037
15:00+12сз81372100 1.3 10141713
18:00+10сз7107299 0.3 10151195
21:00+7сз22870 0.3 101624
20 мая, пт
пт2000:00+6з339087 0.0 101653
03:00+5зсз349328 0.0 101665
06:00+6с368973 0.0 1016200
09:00+9с455966 0.0 1017807
12:00+11с5754100 0.1 10171947
15:00+11ссз564948 0.1 10171769
18:00+11ссв33525 0.0 10171736
21:00+7вюв2261100 0.0 101718
21 мая, сб
сб2100:00+5в335999 0.0 101628
03:00+4вюв3368100 0.0 101645
06:00+5вюв3674100 0.0 1014181
09:00+8вюв5762100 0.0 1013540
12:00+10вюв6752100 0.0 10121594
15:00+10в4561100 0.0 10111304
18:00+9св357057 0.1 1010855
21:00+6ссв5118181 0.3 1011330